Location: Sungai Anya
(2.6167°N, 114.0500°E)
Time: 18:58:16
(UTC+00:00)

H-2A R/B - Pass Details

Date: 19 October 2021
Orbit: 578 x 653 km, 98.5° (Epoch: 07 December)

Event Time Altitude Azimuth Distance (km) Brightness Sun altitude
Rises 11:07:58 0° 3° (N) 2,811 5.3 -15.0°
Reaches altitude 10° 11:10:08 10° 359° (N) 1,922 4.5 -15.6°
Maximum altitude 11:14:11 52° 282° (WNW) 755 2.8 -16.6°
Drops below altitude 10° 11:18:21 10° 206° (SSW) 1,973 5.1 -17.6°
Sets 11:20:36 0° 201° (SSW) 2,893 5.9 -18.1°
